Flag for Canada Weather past 2 weeks in Greater Sudbury, Ontario, Canada

39 °F

Passing clouds.

Feels Like: 35 °F
Forecast: 32 / 55 °F
Wind: 6 mph from North

Location: Sudbury

Current Time: Oct 9, 2015 at 9:34:26 PM

Latest Report: Oct 9, 2015 at 9:00 PM

Visibility: 15 mi

Pressure: 30.13 "Hg

Humidity: 87%

Dew point: 36 °F

Location of Greater SudburyLocation

Historic Weather in Greater Sudbury — Graph


Greater Sudbury temperature yesterday

Maximum temperature yesterday: 48 °F (at 2:00 PM)
Minimum temperature yesterday: 34 °F (at 6:00 AM)
Average temperature yesterday: 41 °F

Past Weeks' High & Low Weather Summary

High73 °F (Sep 27, 2:00 PM)100% (Sep 27, 6:00 AM)30.68 "Hg (Sep 27, 6:00 AM)
Low34 °F (Oct 8, 6:00 AM)35% (Oct 2, 3:00 PM)29.83 "Hg (Oct 9, 5:00 AM)
Average49 °F76%30.27 "Hg
* Reported Sep 24 8:00 PM — Oct 9 8:00 PM, Greater Sudbury, Weather by CustomWeather, © 2015

Note: Actual official high and low records may vary slightly from our data, if they occured in-between our weather recording intervals... More about our weather records


Greater Sudbury weather history for previous 24 hours

Time TempWeatherWind HumidityBarometerVisibility
8:00 PM
Fri, Oct 9
43 °FPassing clouds.10 mph76%30.09 "Hg15 mi
7:00 PM46 °FScattered clouds.13 mph71%30.07 "Hg15 mi
6:00 PM48 °FScattered clouds.17 mph71%30.03 "Hg20 mi
5:00 PM50 °FScattered showers. Partly sunny.23 mph62%30.00 "Hg20 mi
4:00 PM55 °FScattered clouds.16 mph47%29.96 "Hg20 mi
3:00 PM54 °FPartly sunny.16 mph58%29.96 "Hg20 mi
2:00 PM54 °FPartly sunny.10 mph63%29.96 "Hg20 mi
1:00 PM50 °FPartly sunny.15 mph71%29.96 "Hg20 mi
12:00 PM46 °FMostly cloudy.14 mph87%29.94 "Hg20 mi
11:00 AM45 °FMostly cloudy.14 mph93%29.93 "Hg20 mi
10:00 AM45 °FDrizzle. Mostly cloudy.9 mph93%29.92 "Hg10 mi
9:00 AM43 °FLow clouds.10 mph100%29.90 "Hg10 mi
8:00 AM43 °FLow clouds.7 mph100%29.86 "Hg10 mi
7:00 AM43 °FLow clouds.10 mph100%29.85 "Hg10 mi
6:00 AM43 °FLight rain. Low clouds.12 mph100%29.85 "Hg10 mi
5:00 AM43 °FLight rain. Fog.12 mph93%29.83 "Hg3 mi
4:00 AM43 °FLight rain. Fog.12 mph93%29.84 "Hg5 mi
3:00 AM43 °FLight rain. Fog.12 mph100%29.85 "Hg3 mi
2:00 AM43 °FLight rain. Fog.10 mph100%29.86 "Hg2 mi
1:00 AM43 °FLight rain. Fog.12 mph100%29.88 "Hg2 mi
12:00 AM43 °FLight rain. Fog.10 mph100%29.92 "Hg5 mi
11:00 PM
Thu, Oct 8
43 °FLight rain. Overcast.10 mph93%29.94 "Hg8 mi
10:00 PM43 °FLight rain. Overcast.12 mph93%29.97 "Hg3 mi
9:00 PM43 °FLight rain. Mostly cloudy.12 mph93%29.99 "Hg6 mi
Weather by CustomWeather, © 2015

See weather overviewHow to use our weather pages